• Processing (Info)

  • MPEC 2023-O06 : 2023 NW1

    The following Minor Planet Electronic Circular may be linked-to from your own Web pages, but must not otherwise be redistributed electronically.

    A form allowing access to any MPEC is at the bottom of this page.


    Read MPEC 2023-O05 Read MPEC 2023-O07


    M.P.E.C. 2023-O06                                 Issued 2023 July 16, 12:46 UT
    
         The Minor Planet Electronic Circulars contain information on unusual
             minor planets, routine data on comets and natural satellites,
             and occasional editorial announcements.  They are published
        on behalf of Division F of the International Astronomical Union by the
              Minor Planet Center, Smithsonian Astrophysical Observatory,
                              Cambridge, MA 02138, U.S.A.
    			  
                 Prepared using the Tamkin Foundation Computer Network
    
                                  MPC@CFA.HARVARD.EDU
                URL https://www.minorplanetcenter.net/    ISSN 1523-6714
    
                                    2023 NW1                                 
    
    
    Observations:
         K23N01W* C2023 07 12.48238920 57 06.527-25 22 10.28         21.30wXEO006F51
         K23N01W  C2023 07 12.49238920 57 06.304-25 21 50.33         20.92wXEO006F51
         K23N01W  C2023 07 12.50233320 57 06.103-25 21 30.40         21.56wXEO006F51
         K23N01W |C2023 07 14.13194 20 56 40.77 -24 25 23.8          20.8 GVEO006807
         K23N01W |C2023 07 14.13934 20 56 40.63 -24 25 08.3          21.1 GVEO006807
         K23N01W |C2023 07 14.14673 20 56 40.43 -24 24 52.9          21.0 GVEO006807
         K23N01W 3C2023 07 14.56084520 56 31.254-24 10 29.97         20.71GVEO006T14
         K23N01W 3C2023 07 14.56182320 56 31.228-24 10 27.87         20.70GVEO006T14
         K23N01W 3C2023 07 14.56280120 56 31.201-24 10 25.74         20.66GVEO006T14
         K23N01W bC2023 07 15.04417220 56 22.06 -23 53 13.3          21.1 GVEO006L01
         K23N01W bC2023 07 15.04653220 56 21.99 -23 53 07.8          21.0 GVEO006L01
         K23N01W bC2023 07 15.05037220 56 21.89 -23 52 59.7          20.4 GVEO006L01
         K23N01W bC2023 07 15.05416020 56 21.82 -23 52 51.6          20.6 GVEO006L01
         K23N01W  C2023 07 15.30054020 56 17.458-23 43 52.22         20.9 GVEO006654
         K23N01W  C2023 07 15.30890920 56 17.215-23 43 34.10         20.9 GVEO006654
         K23N01W  C2023 07 15.32773920 56 16.693-23 42 53.19         21.1 GVEO006654
         K23N01W  C2023 07 15.33575820 56 16.457-23 42 35.49         21.1 GVEO006654
    
    Observer details:
    654 Table Mountain Observatory, Wrightwood-PHMC.  Observers N. Evans, P. Choi,
        N. Saini, C. Zhai, R. Trahan, M. Shao.  1.0-m Reflector + CCD.
    807 Cerro Tololo Observatory, La Serena.  Observers T. Linder, R. Holmes, L.
        Horn.  1.00-m f/10.0 astrograph + CCD.
    F51 Pan-STARRS 1, Haleakala.  Observers J. Bulger, T. Lowe, P. Minguez, A.
        Schultz, I. Smith.  Measurers K. Chambers, T. de Boer, J. Bulger, J.
        Fairlamb, H. Gao, M. Huber, C.-C. Lin, T. Lowe, E. Magnier, P. Minguez, Y.
        Ramanjooloo, A. Schultz, I. Smith, R. Wainscoat, R. Weryk.  1.8-m Ritchey-
        Chretien + CCD.
    L01 Visnjan Observatory, Tican.  Observer K. Korlevic.  1.0-m f/2.9 reflector
        + CCD.
    T14 Canada-France-Hawaii Telescope, Maunakea.  Observers R. Wainscoat, A.
        Acohido, T. Burdullis.  Measurers R. Weryk, R. Wainscoat.  3.6-m Canada-
        France-Hawaii Telescope + CCD.
    
    Orbital elements:
    2023 NW1                                                 Earth MOID = 0.3166 AU
    Epoch 2023 Feb. 25.0 TT = JDT 2460000.5                 Veres                   
    M 321.54921              (2000.0)            P               Q                  
    n   0.19479715     Peri.   38.77883     +0.92706849     +0.27682240             
    a   2.9472319      Node   303.32147     -0.37215918     +0.76083903             
    e   0.5650356      Incl.   17.61081     +0.04518368     +0.58693554             
    P   5.06           H   21.37          G   0.15           U   9                  
    Residuals in seconds of arc
    230712 F51  0.1-  0.0     230714 T14  0.0   0.0     230715 L01  0.7+  0.4+
    230712 F51  0.1-  0.0     230714 T14  0.0   0.0     230715 654  0.1+  0.1-
    230712 F51  0.2+  0.1+    230714 T14  0.0   0.0     230715 654  0.1-  0.1-
    230714 807  0.2-  0.1-    230715 L01  0.3+  0.5+    230715 654  0.1+  0.2-
    230714 807  0.3+  0.0     230715 L01  0.3+  0.8+    230715 654  0.0   0.1+
    230714 807  0.0   0.1+    230715 L01  0.3+  0.6+
    
    Ephemeris:
    2023 NW1                 a,e,i = 2.95, 0.57, 18                  q = 1.2819
    Date    TT    R. A. (2000) Decl.     Delta      r    Elong.  Phase     V
    2023 06 16    20 47 58.6 -34 58 01   0.6958  1.5955   136.8    25.9    22.8
    ...
    2023 07 01    20 56 48.3 -30 38 31   0.5453  1.5077   148.2    20.8    22.0
    ...
    2023 07 09    20 57 38.4 -27 11 31   0.4781  1.4647   155.3    16.9    21.5
    ...
    2023 07 15    20 56 23.1 -23 54 33   0.4344  1.4345   161.1    13.3    21.1
    2023 07 16    20 56 01.4 -23 17 49   0.4278  1.4296   162.1    12.6    21.1
    2023 07 17    20 55 37.2 -22 39 56   0.4213  1.4249   163.1    11.9    21.0
    ...
    2023 07 23    20 52 23.8 -18 27 39   0.3865  1.3975   169.2     7.9    20.6
    ...
    2023 07 31    20 46 26.3 -11 46 42   0.3515  1.3647   173.1     5.2    20.2
    ...
    2023 08 15    20 33 50.8 +02 45 53   0.3232  1.3166   157.0    17.5    20.4
    
    M. P. C. Staff               (C) Copyright 2023 MPC           M.P.E.C. 2023-O06
    


    Read MPEC 2023-O05 Read MPEC 2023-O07


    MPEC number:

    Enter an MPEC number in one of the following forms:

    • 1997-B01 (the full form)
    • J97B01 (the packed version of the full form)
    • B01 (the abbreviated form)